TNCMTFFR

Guest
Details From TNCM - St Maarten - Princess Juliana Intl
To TFFR - Pointe a Pitre Le Raizet
Flight Number -
Tags generated
Created
Modified
Stats Distance 140 nm / 260 km
Max Altitude 7,000 ft / 2,134 m
Waypoints 4
Social Downloads 0
Likes 0
Share VATSIM

Download

Looking for another format? Having issues loading an existing format? Contact us
Advertisement - Login to hide

Notes

Basic altitude profile: - Ascent Rate: 2500ft/min - Ascent Speed: 250kts - Cruise Altitude: 15000ft - Cruise Speed: 420kts - Descent Rate: 1500ft/min - Descent Speed: 250kts Options: - Use NATs: yes - Use PACOTS: yes - Use low airways: yes - Use high airways: no

Route

TNCM BIMBO A517 PPR TFFR

ID Type Via Altitude Latitude Longitude Leg Dist Tot Dist Heading (true) Name
O TNCM APT - 0 ft / 0 m 18.04089˚ -63.10897˚ - 0 nm - St Maarten - Princess Juliana Intl
BIMBO FIX - 7,000 ft / 2,134 m 16.62667˚ -61.96028˚ 107 nm 107 nm 142° / 142° -
PPR DME A517 (AWY-LO) 7,000 ft / 2,134 m 16.26519˚ -61.54014˚ 32 nm 139 nm 132° / 132° POINTE A PITRE VOR-DME
O TFFR APT - 0 ft / 0 m 16.26531˚ -61.53181˚ 0 nm 140 nm 89° / 89° Pointe a Pitre Le Raizet

Altitude Profile

TNCM

Details ICAO TNCM (SXM)
Name St Maarten - Princess Juliana Intl
Region Caribbean Netherlands, Aruba, Curaçao, Sint Maarten
Timezone Unknown (UTC+0.0)
Stats Elevation 12 ft / 4 m (AMSL)
Location 18.040889° -63.108974°
Runways 1
Magnetic Variation 14.303° W

METAR

TNCM 270600Z 09011G22KT 9999 FEW018 25/22 Q1017 A3004

Decode

TAF

TAF TNCM 270540Z 2706/2806 08011KT P6SM VCSH SCT018 FM271130 07015KT P6SM FEW020 FM272300 08011KT P6SM SCT018

Decode

Departure Runways

ID Width Length Bearing (true) Bearing (mag) Surface Threshold Offset Overrun Length
10 148 ft / 45 m 7,464 ft / 2,275 m 81.43° 95.73° Asphalt 0 ft / 0 m 151 ft / 46 m
28 148 ft / 45 m 7,464 ft / 2,275 m 261.44° 275.74° Asphalt 397 ft / 121 m 0 ft / 0 m

TFFR

Details ICAO TFFR (PTP)
Name Pointe a Pitre Le Raizet
Region France (Guadeloupe, Martinique, Saint Barthélemy, Saint Martin)
Timezone America/Guadeloupe (UTC-4.0)
Stats Elevation 35 ft / 11 m (AMSL)
Location 16.265306° -61.531808°
Runways 1
Magnetic Variation 14.837° W

METAR

TFFR 270630Z AUTO 32002KT 9999 FEW025/// BKN062/// BKN072/// ///TCU 22/21 Q1015 BECMG SCT025

Decode

TAF

TAF TAF TFFR 270500Z 2706/2806 10005KT 9999 SCT025 PROB40 TEMPO 2712/2802 09015G25KT PROB30 TEMPO 2802/2806 4000 SHRA SCT020TCU

Decode

Destination Runways

ID Width Length Bearing (true) Bearing (mag) Surface Threshold Offset Overrun Length
11 148 ft / 45 m 11,513 ft / 3,509 m 100.94° 115.78° Asphalt 0 ft / 0 m 0 ft / 0 m
29 148 ft / 45 m 11,513 ft / 3,509 m 280.95° 295.79° Asphalt 0 ft / 0 m 0 ft / 0 m

Approach Navaids

Runway Type Ident Frequency Range Bearing (true) Bearing (mag) Slope Elevation
11 Localiser PP 110.30 MHz 18 nm / 33 km 100.95° 115.79° - 36 ft / 11 m (AMSL)
11 Glidescope PP 110.30 MHz 10 nm / 19 km 100.94° 115.78° 3.20° 36 ft / 11 m (AMSL)

Popular Alternatives